Total_Precipitation_Accumulation
0.01 0.00 0.00 0.00 0.01 0.02 0.02 0.02 0.01 0.01 0.01 0.01 0.02 0.03 0.04 0.02 0.01 0.01 0.01 0.01 0.01 0.01 0.01 0.01 0.03 0.07 0.14 0.15 0.14 0.18 0.24 0.30 0.27 0.23 0.29 0.38 0.44 0.51 0.56 0.65 0.67 0.82 0.85 0.75
0.01 0.00 0.00 0.00 0.00 0.01 0.02 0.01 0.01 0.01 0.01 0.01 0.01 0.01 0.03 0.02 0.02 0.01 0.01 0.01 0.01 0.01 0.01 0.01 0.01 0.01 0.02 0.04 0.06 0.10 0.15 0.23 0.30 0.32 0.36 0.49 0.65 0.75 0.80 0.88 0.89 0.93 0.87 0.80
0.00 0.00 0.00 0.00 0.00 0.00 0.00 0.00 0.00 0.00 0.00 0.00 0.00 0.01 0.02 0.03 0.03 0.02 0.02 0.03 0.03 0.03 0.02 0.01 0.01 0.01 0.01 0.02 0.05 0.10 0.18 0.31 0.47 0.62 0.82 1.05 1.32 1.41 1.29 1.14 1.17 1.23 1.22 1.11
0.00 0.00 0.00 0.00 0.00 0.00 0.00 0.00 0.00 0.01 0.01 0.00 0.00 0.00 0.02 0.05 0.06 0.07 0.08 0.09 0.09 0.07 0.06 0.05 0.04 0.03 0.05 0.09 0.15 0.26 0.37 0.53 0.67 0.86 1.07 1.31 1.53 1.70 1.70 1.71 1.73 1.67 1.56 1.39
0.00 0.00 0.00 0.00 0.00 0.00 0.00 0.00 0.00 0.00 0.01 0.01 0.00 0.01 0.04 0.11 0.17 0.22 0.25 0.25 0.23 0.19 0.18 0.17 0.14 0.12 0.14 0.25 0.36 0.47 0.68 0.81 0.90 0.94 1.03 1.24 1.35 1.40 1.53 1.68 1.75 1.71 1.58 1.42
0.00 0.00 0.00 0.00 0.00 0.00 0.00 0.00 0.00 0.00 0.01 0.01 0.00 0.04 0.13 0.24 0.32 0.40 0.40 0.36 0.33 0.25 0.22 0.24 0.26 0.25 0.28 0.49 0.71 0.84 0.92 0.97 0.93 0.88 0.89 1.03 1.19 1.27 1.36 1.47 1.52 1.43 1.29 1.25
0.00 0.00 0.00 0.00 0.00 0.00 0.00 0.00 0.01 0.01 0.02 0.03 0.03 0.11 0.26 0.28 0.27 0.30 0.33 0.32 0.28 0.20 0.16 0.20 0.28 0.38 0.53 0.77 1.00 1.12 1.10 0.99 0.84 0.79 0.83 0.91 1.03 1.16 1.20 1.18 1.15 1.08 1.00 0.99
0.00 0.00 0.00 0.00 0.00 0.00 0.00 0.00 0.03 0.03 0.03 0.05 0.11 0.27 0.38 0.30 0.21 0.16 0.16 0.16 0.18 0.22 0.26 0.25 0.28 0.43 0.67 0.93 1.17 1.40 1.37 1.16 0.93 0.86 0.89 0.89 0.92 0.93 0.89 0.85 0.84 0.83 0.79 0.76
0.00 0.00 0.00 0.00 0.00 0.00 0.00 0.01 0.03 0.08 0.05 0.06 0.12 0.26 0.29 0.20 0.14 0.12 0.14 0.17 0.22 0.28 0.36 0.41 0.50 0.58 0.77 0.97 1.28 1.49 1.52 1.34 1.17 1.09 1.04 1.01 0.88 0.76 0.66 0.58 0.56 0.56 0.52 0.49
0.00 0.00 0.00 0.00 0.00 0.00 0.01 0.02 0.05 0.13 0.13 0.11 0.15 0.24 0.19 0.11 0.10 0.12 0.18 0.23 0.28 0.34 0.39 0.52 0.76 0.95 1.16 1.08 1.19 1.36 1.29 1.21 1.17 1.18 1.20 1.13 0.93 0.77 0.67 0.60 0.55 0.49 0.44 0.40
0.00 0.00 0.00 0.00 0.00 0.01 0.03 0.05 0.06 0.12 0.17 0.20 0.28 0.33 0.22 0.18 0.20 0.25 0.31 0.34 0.37 0.43 0.48 0.62 0.78 0.93 1.10 1.19 1.18 1.21 1.15 1.12 1.08 1.02 0.99 0.89 0.71 0.60 0.55 0.55 0.50 0.41 0.37 0.36
0.00 0.00 0.00 0.00 0.01 0.04 0.10 0.12 0.12 0.20 0.26 0.31 0.45 0.50 0.33 0.33 0.38 0.45 0.51 0.54 0.57 0.57 0.60 0.71 0.78 0.93 1.02 1.02 1.04 1.11 1.04 0.98 0.92 0.80 0.72 0.62 0.49 0.43 0.47 0.47 0.39 0.29 0.28 0.28
0.00 0.00 0.00 0.00 0.01 0.08 0.25 0.31 0.22 0.19 0.28 0.42 0.55 0.56 0.48 0.50 0.57 0.67 0.77 0.75 0.69 0.63 0.61 0.67 0.71 0.80 0.87 0.91 0.97 1.05 1.00 0.99 0.96 0.78 0.63 0.57 0.51 0.49 0.49 0.42 0.33 0.24 0.23 0.25
0.00 0.00 0.00 0.01 0.03 0.12 0.30 0.39 0.30 0.26 0.40 0.45 0.50 0.58 0.62 0.70 0.79 0.81 0.81 0.76 0.63 0.51 0.44 0.41 0.40 0.47 0.54 0.61 0.71 0.81 0.78 0.95 1.10 1.02 0.80 0.68 0.63 0.54 0.45 0.35 0.29 0.26 0.29 0.33
0.00 0.00 0.00 0.01 0.01 0.05 0.14 0.23 0.22 0.25 0.32 0.35 0.39 0.48 0.62 0.70 0.77 0.76 0.66 0.50 0.37 0.28 0.21 0.18 0.16 0.22 0.29 0.39 0.45 0.52 0.65 0.85 0.88 0.72 0.52 0.45 0.42 0.37 0.30 0.24 0.21 0.20 0.21 0.21
0.00 0.00 0.00 0.00 0.00 0.00 0.01 0.03 0.05 0.08 0.12 0.17 0.25 0.39 0.49 0.52 0.51 0.47 0.36 0.23 0.15 0.12 0.09 0.07 0.05 0.07 0.10 0.13 0.20 0.31 0.39 0.45 0.42 0.35 0.28 0.24 0.20 0.17 0.15 0.15 0.13 0.10 0.08 0.09
0.00 0.00 0.00 0.00 0.00 0.00 0.00 0.01 0.04 0.09 0.12 0.18 0.30 0.39 0.35 0.33 0.30 0.28 0.20 0.11 0.07 0.05 0.04 0.03 0.03 0.04 0.03 0.03 0.03 0.05 0.08 0.11 0.10 0.07 0.06 0.06 0.06 0.06 0.05 0.05 0.05 0.05 0.06 0.06
0.00 0.00 0.00 0.00 0.00 0.00 0.00 0.00 0.02 0.06 0.12 0.18 0.26 0.26 0.21 0.17 0.13 0.10 0.06 0.03 0.02 0.02 0.01 0.01 0.01 0.01 0.01 0.01 0.01 0.01 0.00 0.01 0.01 0.01 0.01 0.01 0.02 0.03 0.03 0.04 0.04 0.02 0.02 0.03
0.00 0.00 0.00 0.00 0.00 0.00 0.00 0.00 0.00 0.02 0.04 0.05 0.07 0.06 0.05 0.03 0.03 0.01 0.00 0.00 0.01 0.00 0.00 0.00 0.00 0.00 0.00 0.00 0.00 0.00 0.00 0.00 0.00 0.00 0.00 0.00 0.00 0.01 0.01 0.01 0.01 0.00 0.00 0.01
0.00 0.00 0.00 0.00 0.00 0.00 0.00 0.00 0.00 0.01 0.02 0.01 0.01 0.01 0.01 0.00 0.01 0.01 0.00 0.00 0.00 0.00 0.00 0.00 0.00 0.00 0.00 0.00 0.00 0.00 0.00 0.00 0.00 0.00 0.00 0.00 0.00 0.00 0.01 0.01 0.00 0.00 0.00 0.00
0.00 0.00 0.00 0.00 0.00 0.00 0.00 0.00 0.00 0.00 0.01 0.00 0.00 0.00 0.00 0.00 0.00 0.00 0.00 0.00 0.00 0.00 0.00 0.00 0.00 0.00 0.00 0.00 0.00 0.00 0.00 0.00 0.00 0.00 0.00 0.00 0.00 0.00 0.01 0.03 0.02 0.01 0.01 0.00
0.00 0.00 0.00 0.00 0.00 0.00 0.00 0.00 0.00 0.00 0.00 0.00 0.00 0.00 0.00 0.00 0.00 0.00 0.00 0.00 0.00 0.00 0.00 0.00 0.00 0.00 0.00 0.00 0.00 0.00 0.00 0.00 0.00 0.00 0.00 0.00 0.01 0.01 0.02 0.05 0.03 0.02 0.01 0.00
0.00 0.00 0.00 0.00 0.00 0.00 0.00 0.00 0.00 0.00 0.00 0.00 0.00 0.00 0.00 0.00 0.00 0.00 0.00 0.00 0.00 0.00 0.00 0.00 0.00 0.00 0.00 0.00 0.00 0.00 0.00 0.00 0.00 0.00 0.00 0.00 0.00 0.01 0.02 0.02 0.02 0.02 0.01 0.01
0.00 0.00 0.00 0.00 0.00 0.00 0.00 0.00 0.00 0.00 0.00 0.00 0.00 0.00 0.00 0.00 0.00 0.00 0.00 0.00 0.00 0.00 0.00 0.00 0.00 0.00 0.00 0.00 0.00 0.00 0.00 0.00 0.00 0.00 0.00 0.00 0.00 0.01 0.02 0.01 0.01 0.01 0.01 0.01
0.00 0.00 0.00 0.00 0.00 0.00 0.00 0.00 0.00 0.00 0.00 0.00 0.00 0.00 0.00 0.00 0.00 0.00 0.00 0.00 0.00 0.00 0.00 0.00 0.00 0.00 0.00 0.00 0.00 0.00 0.00 0.00 0.00 0.00 0.00 0.00 0.00 0.01 0.02 0.01 0.00 0.00 0.00 0.00
0.00 0.00 0.00 0.00 0.00 0.00 0.00 0.00 0.00 0.00 0.00 0.00 0.00 0.00 0.00 0.00 0.00 0.00 0.00 0.00 0.00 0.00 0.00 0.00 0.00 0.00 0.00 0.00 0.00 0.00 0.00 0.00 0.00 0.00 0.00 0.00 0.00 0.01 0.01 0.02 0.01 0.00 0.00 0.01